This is the latest recevied weather packets stored in our database for station/object KB1QVF. If no packets are shown the sender has not sent any weather packets the latest 10 day(s).
| Time | Temp. | Humidity | Pressure | Rain* | Wind** | Luminosity | Snow |
|---|---|---|---|---|---|---|---|
| 1778065448 | 14.44° C | 87% | 1013.3 hPa | 0 mm | - | 87 W/m² | - |
| 1778065145 | 14.44° C | 87% | 1013.1 hPa | 0 mm | - | 77 W/m² | - |
| 1778064841 | 13.89° C | 88% | 1012.9 hPa | 0 mm | - | 75 W/m² | - |
| 1778064538 | 13.89° C | 88% | 1013.2 hPa | 0 mm | - | 60 W/m² | - |
| 1778064236 | 13.89° C | 88% | 1013.1 hPa | 0 mm | - | 41 W/m² | - |
| 1778063934 | 13.89° C | 88% | 1013.2 hPa | 0 mm | - | 29 W/m² | - |
| 1778063631 | 13.89° C | 88% | 1013.3 hPa | 0 mm | - | 22 W/m² | - |
| 1778063328 | 13.89° C | 88% | 1013.2 hPa | 0 mm | - | 25 W/m² | - |
| 1778063026 | 13.89° C | 88% | 1013.1 hPa | 0 mm | - | 28 W/m² | - |
| 1778062723 | 13.89° C | 88% | 1013.2 hPa | 0 mm | - | 26 W/m² | - |
| 1778062419 | 13.89° C | 88% | 1013.1 hPa | 0 mm | - | 24 W/m² | - |
| 1778062117 | 13.89° C | 88% | 1013.2 hPa | 0 mm | - | 23 W/m² | - |
| 1778061815 | 13.33° C | 88% | 1013.2 hPa | 0 mm | - | 21 W/m² | - |
| 1778061513 | 13.89° C | 88% | 1013.1 hPa | 0 mm | - | 15 W/m² | - |
| 1778061210 | 13.89° C | 88% | 1013 hPa | 0 mm | - | 9 W/m² | - |
| 1778060907 | 13.89° C | 88% | 1013 hPa | 0 mm | - | 6 W/m² | - |
| 1778060605 | 13.89° C | 88% | 1013 hPa | 0 mm | - | 4 W/m² | - |
| 1778060303 | 13.33° C | 87% | 1013.2 hPa | 0 mm | - | 3 W/m² | - |
| 1778060000 | 13.89° C | 87% | 1013 hPa | 0 mm | - | 1 W/m² | - |
| 1778059698 | 13.89° C | 87% | 1012.9 hPa | 0 mm | - | 1 W/m² | - |
| 1778059395 | 13.89° C | 87% | 1013.1 hPa | 0 mm | - | 0 W/m² | - |
| 1778059092 | 13.89° C | 87% | 1013.1 hPa | 0 mm | - | 0 W/m² | - |
| 1778058790 | 13.89° C | 87% | 1013.1 hPa | 0 mm | - | 0 W/m² | - |
| 1778058488 | 13.89° C | 87% | 1013.4 hPa | 0 mm | - | 0 W/m² | - |
| 1778058184 | 13.89° C | 87% | 1013.2 hPa | 0 mm | - | 0 W/m² | - |
* Rain latest hour (hover to see other rain measurements)
** Current wind speed in m/s (hover to see current wind gust speed)